TimeMDT,TemperatureF,Dew PointF,Humidity,Sea Level PressureIn,VisibilityMPH,Wind Direction,Wind SpeedMPH,Gust SpeedMPH,PrecipitationIn,Events,Conditions,WindDirDegrees,DateUTC
12:51 AM,57.0,19.0,23,29.90,10.0,SE,5.8,-,N/A,,Mostly Cloudy,140,2013-03-28 06:51:00
1:51 AM,57.0,21.9,26,29.89,10.0,South,6.9,-,N/A,,Scattered Clouds,170,2013-03-28 07:51:00
2:51 AM,57.0,21.9,26,29.90,10.0,SSE,3.5,-,N/A,,Scattered Clouds,150,2013-03-28 08:51:00
3:51 AM,55.0,21.0,27,29.88,10.0,SSW,5.8,-,N/A,,Scattered Clouds,210,2013-03-28 09:51:00
4:51 AM,57.0,19.0,23,29.88,10.0,SW,3.5,-,N/A,,Scattered Clouds,230,2013-03-28 10:51:00
5:51 AM,55.9,19.0,24,29.89,10.0,SSW,4.6,-,N/A,,Partly Cloudy,210,2013-03-28 11:51:00
6:51 AM,51.1,19.0,28,29.93,10.0,ESE,6.9,-,N/A,,Partly Cloudy,120,2013-03-28 12:51:00
7:51 AM,53.1,19.9,27,29.96,10.0,ESE,5.8,-,N/A,,Scattered Clouds,120,2013-03-28 13:51:00
8:51 AM,63.0,19.0,18,29.95,10.0,South,4.6,-,N/A,,Scattered Clouds,170,2013-03-28 14:51:00
9:51 AM,68.0,19.9,16,29.96,10.0,South,8.1,-,N/A,,Scattered Clouds,190,2013-03-28 15:51:00
10:51 AM,72.0,18.0,13,29.97,10.0,South,6.9,-,N/A,,Scattered Clouds,170,2013-03-28 16:51:00
11:51 AM,75.9,23.0,14,29.96,10.0,SW,11.5,-,N/A,,Scattered Clouds,230,2013-03-28 17:51:00
12:51 PM,79.0,23.0,13,29.94,10.0,WSW,18.4,-,N/A,,Scattered Clouds,250,2013-03-28 18:51:00
1:51 PM,80.1,24.1,13,29.91,10.0,SW,11.5,17.3,N/A,,Mostly Cloudy,220,2013-03-28 19:51:00
2:51 PM,79.0,24.1,13,29.89,10.0,West,11.5,19.6,N/A,,Mostly Cloudy,280,2013-03-28 20:51:00
3:51 PM,80.1,25.0,13,29.87,10.0,WSW,16.1,21.9,N/A,,Mostly Cloudy,250,2013-03-28 21:51:00
4:51 PM,80.1,23.0,12,29.85,10.0,WSW,10.4,19.6,N/A,,Overcast,240,2013-03-28 22:51:00
5:51 PM,78.1,23.0,13,29.86,10.0,West,8.1,-,N/A,,Mostly Cloudy,260,2013-03-28 23:51:00
6:51 PM,77.0,21.9,13,29.87,10.0,SW,5.8,-,N/A,,Mostly Cloudy,220,2013-03-29 00:51:00
7:51 PM,73.9,23.0,15,29.88,10.0,SW,4.6,-,N/A,,Mostly Cloudy,220,2013-03-29 01:51:00
8:51 PM,73.0,24.1,16,29.88,10.0,Calm,Calm,-,N/A,,Mostly Cloudy,0,2013-03-29 02:51:00
9:51 PM,71.1,26.1,19,29.89,10.0,South,3.5,-,N/A,,Mostly Cloudy,190,2013-03-29 03:51:00
10:51 PM,68.0,26.1,21,29.90,10.0,SSW,3.5,-,N/A,,Mostly Cloudy,200,2013-03-29 04:51:00
11:51 PM,66.0,21.9,19,29.89,10.0,WSW,6.9,-,N/A,,Mostly Cloudy,240,2013-03-29 05:51:00